Skip Page Navigation
NASA JPL Caltech
NASA Logo - Jet Propulsion Laboratory + View the NASA Portal
+ Near-Earth Object (NEO) Program
Search JPL
JPL Home Earth Solar System Stars & Galaxies Technology
JPL Solar System Dynamics
BODIES ORBITS EPHEMERIDES TOOLS PHYSICAL DATA DISCOVERY FAQ SITE MAP
JPL Small-Body Database Browser
Search: [ help ]  
24832 (1995 SU5)
Classification: Main-belt Asteroid          SPK-ID: 2024832
Ephemeris | Orbit Diagram | Orbital Elements | Physical Parameters | Discovery Circumstances | Close-Approach Data ]

[ show orbit diagram ]
Orbital Elements at Epoch 2456800.5 (2014-May-23.0) TDB
Reference: JPL 6 (heliocentric ecliptic J2000)
 Element Value Uncertainty (1-sigma)   Units 
e .1608834013323061 8.8771e-08  
a 2.368245086340798 1.9841e-08 AU
q 1.98723376166177 2.0917e-07 AU
i 7.392033051655003 1.0461e-05 deg
node 203.6581680700657 3.9874e-05 deg
peri 28.02819901185812 4.7043e-05 deg
M 191.4596152175425 2.2526e-05 deg
tp 2457423.717836773385
(2016-Feb-05.21783677)
8.4091e-05 JED
period 1331.184935456317
3.64
1.6729e-05
4.58e-08
d
yr
n .2704357526977239 3.3986e-09 deg/d
Q 2.749256411019827 2.3033e-08 AU
  Orbit Determination Parameters
   # obs. used (total)      611  
   data-arc span      8134 days (22.27 yr)  
   first obs. used      1991-10-06  
   last obs. used      2014-01-12  
   planetary ephem.      DE431  
   SB-pert. ephem.      SB431-BIG16  
   condition code      0  
   fit RMS      .55105  
   data source      ORB  
   producer      Otto Matic  
   solution date      2014-Jun-09 23:54:46  

Additional Information
 Earth MOID = .980779 AU 
 T_jup = 3.518 
[ show covariance matrix ]

Ephemeris | Orbit Diagram | Orbital Elements | Physical Parameters | Discovery Circumstances | Close-Approach Data ]

Physical Parameter Table
Parameter Symbol Value Units Sigma Reference Notes
absolute magnitude H 15.2 mag n/a MPO270296  

24832 (1995 SU5)          Discovered 1995-Sep-25 by Beijing Schmidt CCD Asteroid Program at Xinglong (327)
Reference: 20010606/Numbers.arcLast Updated: 2004-04-19

[ show close-approach data ]
Alternate Designations
 1995 SU5 = 1998 QZ80 
Ephemeris | Orbit Diagram | Orbital Elements | Physical Parameters | Discovery Circumstances | Close-Approach Data ]
ABOUT SSD CREDITS/AWARDS PRIVACY/COPYRIGHT GLOSSARY LINKS
FirstGov 2014-Jul-23 05:46 UT
(server date/time)  
NASA Home Page
Site Manager:   Donald K. Yeomans
Webmaster  Alan B. Chamberlin